Hourly Data Report for March 30, 2021

KUGAARUK CLIMATE
NUNAVUT
Current Station Operator: ECCC - MSC

68°32'15.060" N
89°47'47.020" W
15.80 m
2303094
71407
NBB

Download Data

Hourly Data (March 2021)
Hourly Data Report for March 30, 2021
TIME
LST
Temp Definition
°C
Dew Point Definition
°C
Rel Hum Definition
%
Precip. Amount Definition
mm

Wind Dir Definition
10's deg

Wind Spd Definition
km/h
Visibility Definition
km
Stn Press Definition
kPa
Hmdx Definition


Wind Chill Definition


Weather Definition


00:00 -35.0 -38.8 69 0.0 23 25   101.43   -51 LegendNANA
01:00 -35.7 -39.5 68 0.0 23 28   101.38   -53 LegendNANA
02:00 -36.6 -40.4 68 0.0 24 27   101.38   -53 LegendNANA
03:00 -36.4 -40.4 67 0.0 23 34   101.36   -55 LegendNANA
04:00 -37.6 -41.6 66 0.0 24 23   101.39   -54 LegendNANA
05:00 -37.7 -41.8 66 0.0 23 30   101.37   -56 LegendNANA
06:00 -37.7 -42.0 64 0.0 23 24   101.35   -54 LegendNANA
07:00 -38.0 -42.4 63 0.0 24 25   101.31   -55 LegendNANA
08:00 -37.0 -41.8 61 0.2 25 12   101.30   -49 LegendNANA
09:00 -36.3 -41.3 60 0.0 26 21   101.26   -51 LegendNANA
10:00 -36.1 -40.9 61 0.0 25 34   101.20   -54 LegendNANA
11:00 -35.6 -40.5 61 0.0 25 31   101.21   -53 LegendNANA
12:00 -35.2 -39.9 62 0.0 26 31   101.18   -53 LegendNANA
13:00 -35.0 -39.5 64 0.0 26 30   101.13   -52 LegendNANA
14:00 -35.1 -39.5 65 0.0 25 30   101.14   -52 LegendNANA
15:00 -35.8 -40.1 65 0.0 27 23   101.14   -51 LegendNANA
16:00 -35.7 -39.7 67 0.0 27 37   101.07   -55 LegendNANA
17:00 -35.5 -39.2 68 0.0 26 37   101.08   -54 LegendNANA
18:00 -35.6 -39.2 69 0.0 25 31   101.15   -53 LegendNANA
19:00 -35.6 -39.3 69 0.0 25 35   101.10   -54 LegendNANA
20:00 -35.7 -39.3 69 0.0 24 32   101.08   -54 LegendNANA
21:00 -35.8 -39.4 69 0.0 24 31   101.06   -53 LegendNANA
22:00 -35.8 -39.4 69 0.0 23 28   101.04   -53 LegendNANA
23:00 -35.7 -39.5 68 0.0 23 28   101.02   -53 LegendNANA

Notes on Data Quality.

Legend

  • E = Estimated
  • M = Missing
  • NA = Not Available*
  • [empty] = Indicates an unobserved value
Date modified: